GFSNE_850_temp_162.txt.gz
Temp
-5 -6 -7 -7 -6 -6 -5 -5 -4 -3 -2 -1 -0 -0 0 1 2 1 4 5 7 8 8 10 9 9 10 9 11 10 10 10 10 10 10 10 9 9
-6 -5 -6 -7 -6 -5 -5 -5 -4 -3 -3 -1 -1 -1 -0 0 1 1 2 3 4 6 7 8 8 8 9 9 9 10 10 10 10 10 9 8 9 10
-5 -3 -5 -7 -6 -4 -5 -4 -3 -3 -2 -2 -1 -1 0 0 -0 -1 1 1 2 2 4 6 6 7 7 8 9 9 9 9 9 9 9 9 9 9
-3 -3 -3 -6 -6 -4 -4 -4 -3 -3 -2 -2 -2 -2 -2 -3 -2 -2 -2 -2 1 0 2 5 5 4 4 6 7 7 8 8 8 8 8 8 7 7
-3 -4 -3 -4 -4 -4 -4 -4 -4 -4 -3 -3 -4 -4 -4 -4 -4 -4 -3 -6 -3 0 -0 3 4 3 1 4 4 4 5 6 6 5 5 6 6 6
-3 -4 -4 -4 -3 -4 -4 -4 -5 -5 -5 -5 -5 -5 -5 -5 -5 -6 -4 -5 -6 -5 -6 -3 2 -1 -1 1 1 2 3 4 4 5 4 4 4 4
-4 -4 -5 -5 -4 -3 -4 -4 -4 -5 -5 -5 -6 -5 -5 -6 -6 -7 -6 -5 -4 -4 -6 -4 -2 -2 -3 -2 -0 -1 1 2 3 3 3 3 4 4
-4 -4 -5 -4 -5 -5 -4 -4 -4 -4 -6 -6 -6 -7 -7 -6 -6 -6 -6 -6 -7 -6 -6 -7 -6 -5 -4 -3 -3 -3 -2 -1 0 1 2 2 2 2
-4 -4 -4 -5 -5 -5 -4 -4 -4 -4 -4 -6 -6 -6 -7 -7 -8 -7 -7 -6 -7 -7 -8 -8 -9 -8 -7 -6 -4 -4 -3 -2 -2 -2 -1 -1 -1 -1
-4 -4 -5 -5 -5 -5 -5 -5 -4 -5 -5 -6 -6 -6 -6 -6 -7 -8 -9 -8 -8 -7 -8 -10 -11 -10 -11 -8 -7 -6 -5 -4 -3 -3 -3 -3 -3 -3
-5 -5 -5 -5 -6 -6 -6 -6 -6 -6 -8 -8 -8 -8 -7 -6 -5 -8 -8 -8 -10 -7 -6 -11 -11 -11 -10 -8 -8 -7 -7 -6 -6 -5 -5 -4 -4 -4
-7 -6 -6 -6 -6 -6 -6 -6 -6 -7 -8 -7 -7 -7 -7 -7 -6 -6 -7 -9 -10 -9 -8 -12 -12 -11 -9 -11 -9 -8 -8 -7 -7 -6 -6 -5 -5 -5
-11 -9 -7 -7 -7 -7 -7 -7 -7 -7 -8 -8 -8 -8 -8 -7 -7 -8 -8 -8 -9 -9 -9 -10 -10 -12 -12 -12 -13 -10 -10 -9 -9 -8 -8 -7 -7 -7
-8 -8 -8 -8 -8 -8 -8 -9 -9 -8 -8 -8 -9 -9 -9 -9 -10 -10 -10 -10 -10 -10 -10 -9 -12 -13 -13 -12 -13 -13 -14 -13 -12 -12 -13 -13 -13 -13
-8 -8 -8 -8 -9 -9 -9 -9 -9 -9 -10 -10 -11 -11 -11 -11 -12 -13 -12 -14 -13 -12 -11 -11 -11 -14 -15 -14 -14 -15 -15 -15 -15 -15 -15 -14 -14 -14
-9 -9 -9 -9 -9 -9 -9 -9 -9 -10 -10 -11 -13 -13 -14 -14 -14 -14 -15 -15 -15 -15 -13 -12 -12 -13 -15 -15 -15 -15 -15 -15 -16 -16 -15 -15 -14 -14
-9 -10 -10 -10 -11 -10 -10 -10 -10 -11 -11 -11 -12 -15 -15 -15 -15 -15 -16 -15 -15 -15 -16 -16 -16 -15 -14 -15 -16 -16 -16 -16 -16 -16 -16 -15 -15 -15
-10 -11 -11 -11 -11 -11 -12 -12 -11 -11 -12 -12 -13 -14 -16 -16 -16 -16 -16 -16 -15 -16 -16 -16 -17 -15 -15 -16 -16 -18 -17 -17 -17 -17 -16 -16 -15 -15
-12 -12 -11 -11 -12 -12 -12 -12 -12 -12 -13 -13 -14 -14 -15 -17 -17 -17 -17 -17 -16 -16 -16 -17 -17 -17 -16 -16 -17 -18 -18 -19 -18 -18 -17 -17 -17 -16
-13 -13 -12 -12 -12 -13 -13 -13 -13 -14 -14 -14 -14 -15 -15 -18 -18 -18 -18 -18 -18 -17 -17 -17 -18 -19 -18 -19 -18 -18 -19 -20 -20 -19 -18 -18 -17 -18
-13 -13 -13 -13 -13 -13 -13 -14 -14 -14 -15 -15 -15 -15 -16 -19 -19 -19 -19 -19 -19 -18 -18 -18 -19 -20 -19 -19 -18 -18 -19 -19 -20 -20 -20 -19 -19 -18
-14 -14 -13 -14 -14 -14 -14 -15 -15 -15 -16 -16 -16 -16 -17 -19 -20 -20 -20 -20 -19 -19 -19 -19 -19 -19 -19 -19 -19 -19 -18 -19 -20 -20 -20 -21 -20 -20
-14 -14 -14 -14 -14 -15 -15 -15 -16 -16 -16 -17 -17 -17 -17 -18 -19 -21 -21 -20 -20 -20 -20 -20 -19 -19 -19 -19 -20 -19 -19 -19 -19 -19 -19 -19 -20 -21

GFSNE_850_temp_165.txt.gz
Temp
-6 -3 -5 -6 -6 -6 -6 -5 -4 -4 -3 -2 -1 -2 -2 -1 -1 -1 2 -0 1 6 7 8 9 9 9 9 10 9 9 10 10 10 9 10 9 10
-6 -3 -4 -7 -7 -6 -6 -5 -5 -5 -4 -3 -2 -2 -3 -2 -3 -1 0 0 -3 3 4 7 7 8 8 9 9 9 8 9 10 10 9 9 10 9
-3 -3 -4 -6 -7 -7 -6 -5 -5 -5 -4 -4 -3 -3 -3 -3 -3 -4 -3 -2 -2 -1 -1 2 4 4 6 6 7 8 9 9 9 9 9 9 8 9
-2 -2 -3 -3 -5 -6 -6 -5 -5 -5 -4 -4 -4 -4 -4 -5 -4 -4 -5 -4 -3 -2 -1 1 2 2 2 3 3 3 5 6 7 8 8 8 8 8
-2 -2 -2 -3 -3 -5 -6 -6 -5 -6 -5 -4 -5 -5 -5 -5 -5 -4 -5 -6 -7 -5 -3 -3 -2 -0 1 1 -1 1 1 2 3 5 6 7 7 6
-3 -2 -3 -4 -3 -3 -5 -5 -6 -6 -6 -6 -6 -6 -5 -6 -5 -6 -5 -6 -5 -5 -5 -5 -6 -2 -1 -0 -3 1 -1 -1 2 3 4 4 4 5
-4 -4 -3 -4 -5 -3 -3 -4 -6 -7 -7 -7 -7 -7 -7 -7 -6 -6 -6 -7 -6 -5 -6 -6 -6 -3 -5 -5 -5 -3 -3 -3 -1 1 1 1 3 3
-3 -4 -4 -4 -5 -5 -4 -4 -4 -5 -6 -8 -8 -9 -8 -7 -8 -7 -6 -6 -6 -6 -8 -6 -6 -6 -5 -5 -5 -5 -4 -4 -3 -2 -1 -1 -1 -1
-3 -4 -4 -4 -4 -5 -4 -4 -4 -4 -5 -5 -5 -5 -6 -7 -9 -8 -7 -7 -8 -8 -8 -9 -9 -9 -7 -6 -5 -5 -5 -5 -4 -3 -2 -3 -3 -3
-4 -4 -4 -4 -5 -5 -5 -4 -5 -5 -5 -5 -6 -6 -6 -6 -6 -9 -9 -8 -8 -8 -8 -10 -10 -10 -9 -9 -7 -6 -5 -5 -5 -5 -4 -4 -4 -4
-5 -5 -5 -5 -5 -5 -5 -5 -5 -6 -7 -8 -7 -7 -7 -6 -5 -6 -8 -8 -9 -8 -8 -11 -11 -10 -10 -9 -8 -8 -8 -8 -6 -6 -5 -6 -6 -9
-7 -6 -6 -5 -6 -6 -6 -6 -6 -7 -8 -8 -8 -8 -7 -7 -6 -6 -6 -9 -9 -9 -9 -11 -11 -11 -9 -11 -11 -10 -10 -9 -9 -9 -7 -7 -6 -8
-11 -8 -7 -6 -6 -6 -6 -6 -6 -7 -9 -9 -9 -8 -8 -8 -8 -8 -8 -8 -8 -9 -9 -11 -11 -11 -10 -11 -11 -12 -13 -13 -13 -12 -13 -12 -11 -10
-10 -7 -7 -7 -7 -7 -7 -7 -8 -8 -10 -11 -11 -10 -9 -9 -10 -10 -9 -10 -10 -10 -10 -10 -14 -13 -12 -11 -12 -13 -13 -13 -13 -12 -13 -13 -13 -13
-7 -7 -8 -8 -7 -8 -8 -8 -8 -11 -12 -13 -13 -13 -12 -11 -12 -13 -13 -14 -13 -11 -11 -11 -11 -13 -13 -13 -13 -14 -14 -13 -14 -14 -14 -13 -13 -13
-8 -8 -8 -9 -9 -9 -10 -10 -10 -10 -12 -13 -14 -14 -14 -14 -14 -14 -13 -13 -13 -14 -14 -13 -12 -12 -14 -14 -14 -14 -14 -14 -15 -15 -14 -14 -13 -14
-9 -9 -11 -12 -13 -13 -12 -11 -11 -12 -13 -13 -14 -14 -14 -14 -14 -14 -14 -13 -13 -14 -14 -15 -15 -14 -14 -14 -15 -16 -16 -15 -16 -16 -15 -14 -14 -14
-10 -13 -13 -13 -13 -13 -13 -14 -12 -11 -12 -13 -14 -14 -15 -15 -15 -15 -14 -14 -14 -14 -14 -15 -15 -14 -14 -14 -15 -16 -17 -17 -17 -16 -16 -15 -15 -15
-12 -13 -13 -14 -13 -14 -14 -14 -14 -12 -12 -13 -14 -14 -16 -16 -15 -15 -15 -15 -15 -15 -15 -15 -16 -16 -15 -15 -16 -16 -17 -18 -18 -18 -17 -17 -17 -16
-13 -13 -14 -14 -14 -14 -14 -15 -14 -13 -13 -14 -14 -15 -15 -16 -16 -16 -16 -17 -17 -15 -15 -15 -16 -18 -17 -17 -17 -16 -17 -18 -19 -19 -18 -18 -18 -17
-14 -14 -14 -14 -14 -14 -13 -13 -13 -13 -14 -14 -16 -16 -16 -18 -17 -18 -17 -18 -17 -16 -16 -16 -17 -18 -18 -17 -17 -17 -17 -17 -18 -19 -19 -19 -18 -18
-14 -14 -15 -14 -14 -14 -14 -14 -15 -15 -15 -16 -16 -17 -17 -19 -18 -18 -18 -18 -17 -18 -17 -17 -17 -17 -17 -17 -17 -17 -17 -18 -18 -18 -18 -18 -19 -19
-15 -15 -15 -14 -14 -14 -15 -16 -15 -17 -16 -16 -17 -18 -16 -18 -20 -19 -19 -19 -18 -19 -18 -18 -18 -18 -17 -17 -18 -18 -18 -18 -18 -18 -18 -18 -19 -19

GFSNE_850_temp_171.txt.gz
Temp
1 1 -0 -1 -2 -4 -5 -5 -5 -5 -5 -4 -5 -4 -5 -4 -4 -4 -3 -4 -4 -3 -2 -0 3 5 6 7 8 9 9 10 10 11 9 10 10 12
0 0 0 0 -0 -3 -4 -4 -5 -5 -5 -5 -5 -5 -5 -5 -5 -5 -4 -4 -4 -4 -3 -1 0 4 5 6 7 8 9 9 9 10 9 8 9 11
0 -0 0 1 -0 -1 -2 -4 -6 -6 -6 -5 -5 -5 -5 -5 -5 -5 -5 -4 -4 -5 -4 -3 -2 1 3 4 6 7 7 8 8 8 8 7 8 9
-0 -0 0 0 0 -1 -2 -2 -6 -6 -6 -6 -6 -6 -6 -6 -6 -6 -6 -5 -5 -6 -6 -4 -3 -2 -0 1 0 3 6 6 6 7 6 5 6 7
0 -0 0 0 0 -1 -2 -2 -3 -5 -6 -7 -7 -7 -6 -6 -7 -7 -7 -6 -6 -6 -6 -5 -4 -3 -2 -2 -1 -0 -2 -1 0 3 4 5 4 5
-1 -0 -0 0 -0 -1 -1 -2 -3 -3 -4 -5 -5 -6 -7 -7 -7 -6 -7 -7 -7 -7 -7 -6 -5 -4 -5 -4 -4 -2 -2 -3 -3 -3 -2 -2 -2 -0
-0 -0 -0 -0 -1 -1 -2 -2 -2 -3 -3 -4 -5 -6 -6 -6 -6 -7 -7 -7 -8 -8 -8 -8 -6 -6 -6 -5 -5 -4 -5 -5 -4 -3 -4 -4 -4 -5
-0 -1 -1 -1 -2 -2 -2 -2 -2 -3 -3 -4 -4 -5 -6 -7 -7 -7 -7 -6 -8 -9 -9 -9 -8 -8 -10 -11 -11 -9 -8 -7 -7 -6 -5 -6 -6 -6
-1 -1 -2 -2 -3 -3 -3 -3 -3 -3 -4 -4 -4 -5 -5 -6 -7 -8 -8 -7 -8 -9 -10 -11 -10 -9 -9 -11 -12 -11 -11 -10 -9 -8 -7 -7 -9 -9
-2 -2 -3 -3 -3 -3 -4 -4 -4 -4 -4 -4 -5 -5 -6 -6 -6 -7 -8 -8 -8 -9 -9 -11 -11 -11 -10 -10 -11 -12 -11 -10 -10 -10 -10 -10 -11 -10
-2 -3 -3 -3 -4 -4 -4 -4 -5 -5 -5 -6 -6 -7 -6 -6 -6 -7 -7 -8 -8 -8 -9 -10 -11 -11 -11 -11 -11 -11 -11 -11 -11 -10 -10 -11 -10 -10
-3 -4 -4 -4 -4 -4 -5 -5 -5 -5 -6 -7 -7 -7 -7 -7 -6 -6 -7 -7 -7 -9 -9 -11 -11 -11 -11 -13 -12 -12 -11 -12 -12 -12 -12 -11 -12 -11
-4 -5 -5 -5 -5 -5 -5 -6 -5 -5 -6 -7 -7 -7 -8 -8 -8 -8 -8 -8 -8 -9 -10 -11 -11 -11 -11 -13 -13 -13 -13 -13 -13 -13 -13 -13 -13 -12
-5 -6 -5 -6 -6 -6 -6 -6 -6 -6 -7 -7 -8 -8 -8 -8 -9 -10 -10 -10 -10 -11 -11 -11 -12 -11 -12 -12 -14 -14 -13 -13 -13 -13 -14 -14 -14 -14
-6 -7 -6 -6 -7 -7 -7 -7 -7 -7 -7 -8 -8 -8 -9 -10 -11 -11 -13 -13 -12 -12 -12 -12 -13 -13 -13 -13 -14 -14 -14 -14 -14 -14 -14 -14 -14 -14
-7 -8 -8 -8 -8 -7 -8 -8 -8 -8 -8 -9 -9 -10 -12 -11 -11 -12 -13 -13 -14 -14 -13 -13 -13 -14 -14 -14 -14 -14 -14 -14 -14 -14 -15 -15 -15 -16
-8 -8 -9 -9 -9 -8 -9 -9 -9 -9 -9 -9 -10 -10 -11 -12 -12 -12 -13 -13 -14 -14 -14 -14 -14 -14 -15 -15 -14 -15 -15 -15 -15 -15 -15 -15 -15 -16
-9 -9 -9 -10 -10 -11 -10 -9 -10 -10 -10 -10 -10 -11 -11 -12 -12 -13 -13 -14 -14 -15 -15 -15 -15 -15 -15 -16 -16 -16 -16 -16 -16 -16 -16 -15 -15 -15
-9 -9 -10 -11 -12 -12 -12 -11 -11 -11 -11 -10 -11 -12 -12 -13 -13 -13 -14 -14 -15 -15 -15 -15 -15 -15 -15 -16 -17 -17 -17 -17 -17 -17 -17 -17 -17 -16
-11 -11 -12 -12 -12 -13 -13 -12 -11 -11 -12 -12 -12 -12 -13 -13 -14 -15 -15 -15 -15 -15 -16 -16 -16 -17 -17 -17 -17 -17 -17 -18 -18 -18 -18 -18 -18 -17
-11 -12 -12 -13 -13 -13 -13 -12 -12 -13 -13 -12 -12 -13 -14 -14 -14 -15 -16 -16 -16 -16 -16 -17 -17 -17 -17 -17 -17 -17 -18 -18 -18 -18 -18 -18 -18 -18
-12 -12 -13 -13 -13 -13 -13 -13 -13 -13 -13 -13 -13 -13 -14 -15 -15 -16 -16 -17 -17 -18 -18 -17 -17 -17 -17 -18 -18 -18 -18 -18 -18 -18 -18 -19 -19 -19
-13 -13 -13 -13 -13 -13 -13 -13 -13 -13 -13 -14 -14 -14 -15 -15 -16 -16 -17 -18 -18 -18 -18 -18 -18 -18 -18 -18 -19 -19 -19 -19 -19 -19 -19 -19 -19 -19

GFSNE_850_temp_174.txt.gz
Temp
5 4 3 2 1 -2 -3 -4 -5 -5 -5 -4 -5 -4 -5 -5 -5 -4 -5 -4 -4 -4 -4 -3 -1 -1 2 5 6 8 8 8 9 9 10 10 9 9
4 3 2 2 0 -1 -1 -3 -6 -5 -6 -5 -5 -5 -5 -5 -5 -5 -5 -5 -4 -4 -4 -2 -3 -2 -0 2 5 7 8 8 8 8 9 9 8 9
3 2 2 1 -0 -0 -1 -2 -5 -5 -6 -5 -6 -6 -5 -6 -6 -6 -5 -5 -5 -5 -5 -4 -3 -2 -0 0 0 3 5 7 8 8 8 9 9 8
2 1 1 0 0 0 0 -0 -3 -5 -6 -6 -7 -7 -6 -6 -7 -6 -6 -6 -5 -5 -5 -4 -5 -3 -1 -0 -0 0 1 2 6 7 7 8 7 8
1 0 -0 -0 0 0 0 -0 -2 -3 -3 -5 -6 -6 -6 -6 -6 -7 -7 -7 -6 -6 -5 -4 -4 -6 -5 -4 -3 -2 -1 -0 -1 1 4 4 5 4
0 -1 -1 -1 0 0 0 -0 -1 -2 -3 -4 -4 -5 -6 -6 -6 -6 -7 -8 -7 -7 -7 -6 -5 -5 -5 -5 -6 -5 -4 -3 -2 -2 -3 -3 -1 -1
-0 -2 -1 -1 -0 0 -0 -1 -1 -2 -2 -3 -3 -5 -5 -5 -5 -6 -7 -8 -7 -8 -7 -7 -6 -5 -7 -5 -7 -9 -7 -6 -5 -4 -3 -3 -3 -4
-1 -2 -2 -2 -1 -1 -1 -1 -1 -2 -3 -3 -3 -4 -4 -5 -6 -6 -6 -7 -7 -8 -8 -9 -8 -8 -9 -11 -10 -9 -9 -9 -9 -8 -7 -5 -6 -4
-2 -2 -2 -1 -2 -2 -2 -2 -2 -3 -3 -3 -3 -3 -4 -5 -5 -6 -7 -7 -8 -9 -10 -10 -10 -10 -10 -10 -11 -10 -10 -10 -10 -10 -10 -9 -7 -6
-3 -3 -2 -2 -2 -2 -2 -2 -3 -3 -3 -3 -4 -4 -4 -5 -5 -6 -7 -8 -8 -9 -10 -11 -11 -11 -11 -11 -11 -11 -11 -11 -11 -11 -10 -10 -9 -9
-3 -3 -3 -3 -3 -3 -3 -3 -3 -4 -4 -4 -5 -6 -6 -6 -5 -6 -7 -8 -8 -8 -9 -10 -11 -11 -11 -11 -11 -12 -11 -11 -12 -11 -11 -11 -11 -10
-3 -4 -4 -3 -3 -4 -4 -4 -4 -5 -4 -5 -6 -6 -6 -6 -6 -6 -7 -7 -7 -9 -9 -10 -11 -11 -11 -12 -12 -12 -12 -12 -12 -13 -12 -12 -11 -10
-4 -4 -4 -4 -4 -4 -4 -5 -5 -5 -6 -6 -7 -7 -7 -7 -7 -7 -8 -8 -8 -9 -10 -10 -11 -11 -11 -12 -12 -12 -13 -13 -13 -13 -14 -14 -12 -11
-6 -5 -5 -5 -4 -5 -6 -6 -6 -6 -6 -7 -8 -7 -7 -8 -9 -9 -9 -10 -10 -10 -11 -11 -12 -12 -12 -13 -12 -13 -14 -14 -13 -13 -14 -14 -14 -14
-7 -6 -6 -6 -6 -6 -7 -7 -7 -7 -8 -8 -7 -8 -9 -9 -10 -11 -11 -12 -11 -12 -12 -12 -12 -13 -12 -13 -14 -13 -14 -14 -14 -14 -14 -14 -14 -14
-8 -7 -7 -7 -7 -7 -7 -8 -8 -8 -8 -9 -9 -9 -10 -11 -11 -12 -12 -12 -13 -13 -13 -13 -13 -14 -14 -14 -14 -14 -14 -14 -14 -15 -15 -15 -15 -15
-8 -8 -8 -8 -8 -9 -9 -9 -9 -9 -9 -9 -9 -10 -11 -11 -12 -12 -13 -13 -13 -14 -14 -14 -14 -14 -15 -15 -14 -15 -15 -15 -15 -15 -15 -15 -15 -16
-8 -8 -8 -9 -9 -10 -10 -10 -10 -10 -10 -10 -11 -11 -11 -11 -12 -12 -13 -14 -14 -14 -15 -15 -15 -15 -15 -15 -16 -16 -16 -16 -16 -16 -16 -16 -16 -16
-9 -9 -9 -9 -10 -10 -10 -11 -11 -11 -10 -11 -11 -11 -12 -12 -12 -13 -13 -14 -15 -15 -15 -16 -16 -15 -16 -16 -17 -17 -17 -17 -17 -17 -18 -18 -17 -17
-10 -10 -10 -10 -10 -11 -12 -12 -12 -11 -11 -12 -12 -12 -12 -13 -13 -13 -14 -14 -15 -15 -16 -16 -16 -16 -17 -17 -17 -17 -18 -18 -18 -18 -18 -18 -18 -18
-10 -11 -11 -11 -12 -12 -12 -12 -13 -12 -12 -12 -13 -13 -13 -14 -14 -14 -15 -15 -16 -16 -16 -17 -17 -17 -17 -17 -18 -18 -18 -18 -18 -19 -19 -19 -18 -18
-11 -11 -12 -12 -12 -12 -13 -13 -13 -13 -13 -13 -13 -14 -14 -14 -15 -15 -15 -16 -16 -17 -17 -17 -17 -17 -18 -18 -18 -18 -18 -18 -19 -19 -19 -20 -20 -20
-11 -12 -12 -12 -13 -13 -13 -13 -13 -13 -13 -13 -14 -14 -15 -15 -15 -16 -16 -17 -17 -17 -18 -18 -18 -18 -18 -19 -19 -19 -19 -19 -19 -19 -19 -19 -19 -20

GFSNE_850_temp_177.txt.gz
Temp
4 4 4 4 4 2 1 -1 -5 -4 -5 -5 -5 -4 -3 -4 -4 -5 -5 -4 -3 -4 -4 -4 -4 -4 -2 -2 -1 4 5 6 6 7 9 9 9 10
4 4 4 4 3 2 1 -1 -4 -5 -5 -6 -6 -5 -4 -5 -5 -5 -5 -5 -4 -4 -3 -5 -4 -4 -3 -2 -1 0 2 5 6 8 7 8 9 8
3 3 4 3 3 2 1 -0 -3 -5 -6 -5 -6 -4 -4 -5 -5 -5 -5 -5 -5 -5 -4 -5 -4 -4 -5 -2 -2 -1 -0 -2 1 5 7 7 8 8
3 3 3 3 3 2 1 -0 -2 -2 -4 -3 -4 -4 -5 -5 -5 -5 -6 -6 -5 -5 -5 -5 -8 -5 -5 -5 -3 -2 -1 -0 -1 -2 2 5 7 7
3 3 2 2 2 2 1 -1 -1 -2 -2 -2 -2 -3 -4 -4 -4 -5 -6 -7 -6 -6 -5 -5 -5 -8 -5 -6 -4 -5 -3 -2 -1 0 -2 -1 4 3
2 2 2 2 2 1 0 -1 -1 -1 -1 -1 -1 -3 -4 -4 -5 -4 -5 -6 -6 -6 -6 -7 -7 -6 -9 -9 -9 -8 -7 -5 -3 -3 -1 0 -1 -3
2 1 1 1 1 -0 -1 -1 -1 -1 -1 -1 -1 -2 -3 -3 -3 -4 -4 -5 -7 -7 -7 -6 -7 -7 -8 -10 -10 -9 -10 -7 -5 -4 -4 -4 -3 -2
1 1 0 0 -0 -1 -2 -2 -1 -1 -1 -1 -2 -2 -2 -3 -4 -4 -5 -5 -6 -7 -8 -8 -8 -7 -8 -11 -11 -10 -10 -10 -9 -8 -5 -5 -5 -6
0 -0 -0 -1 -2 -2 -3 -2 -2 -2 -2 -2 -2 -2 -3 -3 -4 -4 -5 -6 -6 -7 -8 -8 -9 -8 -9 -9 -11 -11 -11 -11 -11 -9 -9 -8 -7 -5
-0 -1 -1 -2 -3 -4 -3 -3 -3 -2 -2 -2 -2 -3 -3 -4 -4 -4 -5 -6 -7 -7 -8 -9 -10 -10 -10 -9 -10 -11 -12 -13 -12 -10 -9 -9 -9 -8
-1 -1 -2 -3 -4 -4 -4 -4 -3 -3 -3 -3 -3 -4 -4 -4 -4 -4 -5 -5 -7 -8 -8 -9 -10 -11 -12 -11 -11 -12 -11 -12 -13 -13 -11 -11 -10 -10
-1 -2 -3 -4 -5 -5 -5 -5 -4 -4 -4 -4 -4 -5 -5 -6 -6 -6 -6 -6 -7 -8 -8 -10 -11 -11 -12 -12 -12 -12 -12 -12 -12 -14 -14 -13 -11 -11
-3 -3 -4 -5 -5 -5 -5 -5 -6 -6 -5 -5 -5 -6 -6 -7 -7 -7 -7 -7 -8 -8 -9 -10 -11 -11 -11 -12 -13 -13 -13 -13 -13 -13 -13 -13 -12 -11
-4 -5 -5 -6 -6 -5 -6 -7 -6 -6 -7 -6 -6 -7 -7 -7 -8 -8 -9 -9 -9 -9 -10 -10 -11 -11 -11 -12 -12 -14 -14 -14 -14 -13 -13 -13 -13 -12
-6 -7 -6 -7 -7 -7 -7 -8 -7 -7 -7 -8 -8 -8 -8 -9 -9 -11 -11 -11 -11 -11 -11 -11 -12 -12 -12 -12 -13 -13 -14 -14 -15 -15 -14 -14 -14 -14
-8 -7 -7 -7 -7 -8 -9 -8 -8 -8 -8 -8 -9 -9 -9 -10 -11 -11 -12 -12 -12 -12 -12 -13 -13 -13 -13 -13 -14 -13 -14 -14 -15 -15 -15 -16 -15 -15
-8 -7 -8 -8 -8 -9 -9 -9 -9 -9 -9 -9 -9 -10 -11 -11 -11 -12 -12 -13 -13 -13 -13 -14 -14 -14 -14 -15 -15 -15 -15 -15 -15 -15 -15 -16 -16 -16
-9 -8 -8 -9 -9 -10 -10 -10 -10 -10 -10 -10 -10 -10 -11 -12 -12 -13 -12 -13 -14 -14 -14 -14 -15 -15 -15 -15 -15 -16 -16 -16 -16 -16 -16 -16 -16 -16
-9 -9 -9 -9 -10 -10 -11 -11 -11 -11 -11 -11 -11 -11 -11 -12 -13 -13 -14 -13 -14 -15 -15 -15 -15 -15 -15 -16 -16 -17 -17 -17 -17 -17 -17 -17 -17 -17
-10 -10 -10 -10 -10 -11 -11 -11 -11 -12 -12 -12 -11 -11 -12 -12 -13 -13 -14 -14 -15 -15 -15 -16 -16 -16 -16 -16 -17 -17 -18 -18 -18 -18 -18 -18 -17 -17
-9 -10 -10 -11 -11 -11 -12 -12 -12 -13 -12 -12 -12 -12 -12 -13 -13 -14 -14 -15 -16 -16 -16 -16 -17 -17 -17 -17 -17 -17 -18 -18 -19 -19 -19 -18 -17 -17
-10 -11 -11 -11 -12 -12 -12 -13 -13 -13 -13 -13 -13 -13 -13 -14 -14 -14 -15 -15 -16 -17 -17 -17 -17 -17 -18 -18 -18 -18 -18 -18 -18 -19 -19 -20 -20 -20
-11 -11 -11 -12 -12 -12 -13 -13 -13 -13 -13 -13 -14 -14 -14 -14 -15 -15 -16 -16 -17 -17 -18 -18 -18 -18 -18 -18 -19 -19 -19 -19 -19 -18 -18 -19 -19 -19

GFSNE_850_temp_183.txt.gz
Temp
7 7 6 6 6 6 5 5 3 -0 -2 -2 -3 -1 -1 -1 -1 -2 -2 -2 -2 -2 -3 -4 -5 -6 -5 -4 -3 -2 -2 -1 -0 0 2 4 3 7
7 6 6 5 5 5 4 4 4 4 -1 -3 -1 -2 -1 -1 -1 -2 -2 -2 -3 -3 -2 -3 -5 -7 -6 -5 -5 -4 -3 -2 -1 0 -1 -2 -2 4
7 6 5 4 5 5 4 4 4 3 2 1 -0 -1 -1 -1 -2 -2 -3 -3 -4 -3 -3 -3 -4 -8 -7 -6 -6 -6 -5 -4 -3 -2 -0 -0 -2 -3
5 4 4 4 4 4 4 3 3 2 2 1 1 -0 -1 -2 -2 -2 -2 -4 -4 -4 -4 -4 -4 -6 -8 -7 -8 -9 -7 -6 -5 -4 -3 -3 -2 -0
3 3 3 4 3 3 3 3 2 2 2 2 1 -0 -1 -2 -2 -2 -3 -4 -4 -5 -5 -5 -5 -6 -8 -8 -8 -8 -10 -8 -7 -5 -5 -5 -4 -3
2 2 2 3 2 2 2 2 1 1 2 1 1 -1 -2 -2 -2 -3 -3 -4 -5 -5 -5 -6 -6 -7 -7 -11 -9 -7 -8 -10 -9 -8 -8 -5 -5 -5
1 1 2 2 2 1 1 0 0 1 1 1 -0 -1 -1 -2 -3 -4 -4 -4 -4 -5 -6 -5 -6 -7 -8 -11 -11 -9 -6 -7 -7 -9 -9 -9 -6 -4
1 1 1 1 1 0 0 -0 0 0 1 -0 -1 -1 -1 -2 -3 -3 -4 -5 -8 -5 -5 -6 -7 -8 -8 -10 -12 -12 -12 -6 -7 -6 -7 -8 -8 -6
-0 0 1 0 0 -0 -0 -1 -0 -0 -0 -0 -1 -1 -1 -1 -2 -3 -3 -4 -5 -5 -5 -8 -7 -8 -9 -9 -10 -12 -13 -13 -10 -8 -7 -7 -8 -9
-1 -1 -0 -1 -1 -1 -1 -1 -1 -1 -1 -1 -1 -2 -2 -2 -3 -3 -4 -4 -4 -5 -5 -9 -7 -8 -9 -9 -10 -11 -11 -13 -14 -12 -10 -9 -8 -8
-2 -2 -1 -2 -1 -1 -2 -2 -1 -1 -2 -2 -2 -2 -3 -3 -3 -4 -4 -5 -6 -6 -6 -7 -8 -8 -9 -9 -10 -10 -11 -11 -12 -12 -13 -9 -8 -8
-3 -2 -2 -3 -2 -2 -2 -2 -2 -2 -2 -2 -3 -3 -4 -4 -4 -4 -4 -5 -5 -7 -7 -7 -8 -8 -11 -9 -10 -10 -10 -11 -11 -12 -12 -12 -11 -12
-3 -3 -3 -3 -3 -3 -3 -4 -3 -3 -3 -3 -4 -5 -5 -5 -5 -5 -5 -6 -6 -7 -7 -8 -8 -9 -9 -10 -10 -10 -10 -10 -11 -11 -11 -12 -12 -12
-3 -3 -3 -4 -4 -4 -4 -4 -4 -4 -3 -4 -5 -6 -6 -6 -6 -6 -6 -7 -7 -7 -8 -8 -9 -9 -10 -11 -11 -11 -11 -12 -12 -12 -12 -12 -12 -12
-4 -4 -5 -5 -5 -6 -6 -5 -5 -5 -5 -5 -6 -7 -7 -7 -8 -8 -8 -8 -9 -9 -9 -9 -10 -10 -11 -11 -12 -12 -12 -13 -12 -13 -14 -13 -13 -14
-6 -5 -6 -6 -6 -6 -7 -7 -6 -6 -6 -6 -7 -8 -8 -8 -8 -9 -9 -9 -10 -10 -10 -11 -11 -11 -12 -12 -13 -14 -14 -15 -16 -16 -16 -16 -15 -15
-5 -6 -6 -7 -7 -8 -8 -8 -7 -7 -7 -8 -8 -9 -9 -9 -10 -10 -10 -10 -11 -12 -12 -12 -12 -12 -12 -13 -15 -15 -15 -16 -16 -16 -16 -16 -16 -17
-6 -7 -7 -7 -7 -8 -8 -8 -8 -8 -8 -9 -9 -10 -10 -10 -10 -10 -11 -11 -13 -13 -13 -13 -13 -14 -15 -15 -14 -16 -16 -16 -17 -17 -17 -16 -16 -17
-8 -8 -8 -8 -8 -9 -9 -8 -9 -9 -9 -9 -10 -10 -11 -11 -11 -11 -11 -12 -12 -14 -14 -14 -14 -14 -15 -14 -16 -15 -16 -17 -17 -17 -17 -17 -17 -17
-9 -9 -9 -9 -9 -9 -9 -9 -9 -10 -10 -10 -11 -11 -11 -11 -11 -12 -12 -13 -13 -15 -15 -15 -15 -15 -16 -16 -16 -17 -16 -17 -18 -17 -17 -17 -17 -15
-9 -9 -10 -10 -10 -9 -10 -10 -10 -11 -11 -11 -12 -12 -12 -12 -12 -12 -13 -13 -13 -15 -16 -16 -16 -15 -16 -16 -17 -17 -18 -17 -17 -18 -18 -18 -18 -17
-9 -9 -9 -10 -10 -10 -10 -11 -11 -11 -12 -12 -12 -12 -12 -12 -13 -13 -13 -14 -15 -16 -16 -16 -16 -16 -17 -17 -17 -18 -18 -19 -18 -17 -17 -17 -18 -19
-9 -10 -10 -10 -10 -10 -11 -11 -12 -12 -13 -13 -13 -13 -13 -13 -13 -14 -14 -14 -15 -16 -16 -17 -16 -16 -17 -17 -17 -19 -18 -18 -18 -19 -19 -18 -18 -18

GFSNE_850_temp_186.txt.gz
Temp
7 7 7 7 7 7 7 3 4 3 2 -2 -0 -1 -2 1 1 -0 -0 -0 -1 -0 -1 -1 -2 -2 -2 -1 -0 -1 -2 -1 -1 -1 -0 -0 1 -2
6 7 7 7 6 7 6 5 4 3 2 -1 -2 -1 -1 0 -0 -2 -1 -0 -1 -1 -1 -2 -3 -2 -2 -1 -1 -2 -3 -2 -2 -2 -2 -1 0 1
6 7 6 6 5 7 5 5 4 2 1 -1 1 0 -1 -3 -2 -2 -2 -4 -1 -2 -2 -3 -3 -2 -2 -2 -1 -3 -4 -4 -3 -2 -3 -4 -2 -2
6 5 6 5 6 5 4 3 3 1 -0 -1 -1 -1 -2 -1 -1 -1 -2 -3 -3 -3 -3 -3 -4 -4 -3 -3 -2 -2 -4 -6 -5 -3 -4 -4 -5 -5
4 6 5 6 5 5 4 3 2 2 -1 -1 -2 -4 -2 -2 -1 -1 -1 -2 -5 -3 -4 -4 -3 -5 -6 -4 -4 -3 -4 -5 -7 -6 -4 -5 -5 -5
4 4 4 5 4 4 3 3 3 2 1 -1 -1 -1 -3 -1 -2 -3 -3 -3 -6 -7 -7 -3 -6 -7 -9 -8 -5 -5 -5 -5 -5 -8 -6 -5 -6 -6
2 4 4 4 4 3 3 3 3 2 1 -0 -1 -2 -0 -1 -2 -1 -4 -5 -5 -5 -7 -7 -8 -9 -10 -10 -10 -7 -6 -6 -6 -6 -7 -7 -7 -8
4 4 4 3 3 3 3 3 2 1 1 -2 -2 -1 0 -0 -1 -1 -4 -6 -5 -5 -5 -8 -8 -9 -10 -8 -8 -8 -7 -8 -7 -7 -6 -7 -6 -7
2 2 2 2 2 2 2 2 1 1 1 -1 -0 0 0 -0 -1 -2 -3 -6 -6 -5 -6 -7 -9 -10 -11 -10 -7 -7 -7 -7 -7 -8 -7 -7 -7 -7
2 2 1 1 1 1 1 1 0 -0 -0 0 -0 -0 -0 -1 -1 -3 -5 -6 -6 -5 -5 -7 -8 -10 -11 -11 -9 -8 -8 -8 -8 -8 -9 -7 -8 -9
0 1 0 0 1 1 1 -0 -0 -1 -1 -1 -1 -1 -1 -1 -1 -2 -4 -6 -7 -6 -5 -7 -7 -9 -9 -10 -11 -9 -9 -9 -8 -8 -8 -8 -11 -12
-0 -0 -1 -1 -1 -1 -1 -2 -2 -2 -2 -2 -2 -2 -2 -3 -3 -3 -3 -7 -6 -7 -5 -7 -8 -8 -9 -10 -10 -11 -13 -10 -9 -9 -9 -9 -9 -12
-0 -1 -2 -2 -2 -2 -2 -3 -3 -3 -3 -3 -3 -3 -4 -4 -4 -4 -4 -5 -5 -6 -6 -6 -7 -9 -10 -11 -12 -12 -12 -13 -14 -14 -14 -10 -10 -10
-1 -1 -2 -2 -3 -2 -3 -2 -3 -4 -4 -4 -4 -5 -5 -5 -4 -5 -5 -6 -6 -6 -7 -7 -8 -8 -11 -11 -12 -13 -14 -14 -14 -14 -14 -14 -14 -14
-2 -2 -3 -4 -4 -4 -3 -4 -4 -4 -5 -5 -5 -6 -6 -5 -6 -6 -6 -7 -7 -7 -8 -8 -8 -9 -10 -12 -12 -13 -13 -14 -14 -14 -14 -14 -15 -14
-5 -5 -5 -6 -5 -5 -5 -5 -5 -5 -5 -6 -8 -9 -7 -7 -7 -8 -9 -8 -11 -10 -9 -9 -9 -9 -12 -11 -13 -13 -13 -13 -14 -14 -14 -14 -14 -15
-5 -6 -6 -7 -9 -8 -6 -6 -7 -7 -7 -10 -10 -10 -9 -10 -10 -10 -11 -11 -11 -11 -12 -11 -10 -10 -11 -11 -13 -13 -13 -13 -14 -14 -14 -14 -14 -15
-5 -6 -8 -9 -10 -11 -11 -11 -11 -10 -11 -11 -10 -10 -11 -11 -11 -11 -11 -11 -11 -11 -11 -13 -13 -13 -13 -13 -13 -14 -13 -13 -14 -14 -14 -14 -14 -14
-7 -7 -9 -9 -10 -11 -11 -11 -11 -11 -11 -11 -11 -11 -11 -11 -12 -12 -12 -11 -11 -11 -12 -12 -13 -13 -12 -11 -13 -13 -15 -14 -15 -14 -14 -14 -15 -15
-8 -8 -8 -9 -11 -11 -11 -11 -11 -12 -11 -10 -11 -12 -12 -12 -12 -12 -12 -12 -12 -12 -12 -13 -13 -13 -13 -13 -13 -14 -15 -15 -15 -15 -15 -15 -15 -15
-10 -10 -9 -9 -10 -11 -11 -11 -11 -12 -11 -11 -12 -13 -13 -13 -12 -12 -12 -13 -13 -12 -12 -12 -13 -14 -14 -14 -15 -14 -15 -16 -15 -15 -16 -17 -15 -15
-9 -10 -10 -10 -11 -11 -11 -11 -12 -12 -13 -13 -13 -13 -14 -13 -13 -13 -13 -13 -14 -13 -13 -13 -15 -15 -15 -15 -14 -15 -15 -16 -17 -16 -16 -16 -17 -17
-10 -10 -11 -10 -11 -11 -12 -12 -12 -12 -13 -13 -13 -13 -14 -14 -14 -14 -14 -14 -14 -14 -14 -14 -15 -16 -16 -16 -16 -16 -16 -17 -17 -17 -17 -18 -17 -16

GFSNE_850_temp_192.txt.gz
Temp
6 6 6 6 7 6 5 5 8 1 0 -1 -1 -1 0 0 3 3 2 2 3 3 3 3 3 3 3 2 1 1 2 2 2 2 2 1 0 -1
5 5 5 4 5 5 4 4 5 5 1 1 -1 -1 -1 -1 -0 2 1 1 2 2 2 2 2 2 2 1 1 1 1 1 1 2 2 1 -1 -3
4 5 5 3 5 5 5 4 4 4 4 1 2 -1 -1 0 -0 -0 0 0 1 2 2 2 2 1 1 0 1 0 0 -0 1 1 1 1 -1 -2
4 3 2 3 2 4 4 4 4 4 4 3 -0 -2 -1 -1 0 -0 0 -0 -1 0 0 1 0 0 -1 -0 0 -0 -0 -0 -0 1 0 -1 -1 -2
2 2 3 1 2 3 2 2 3 3 1 2 -0 -2 -2 -1 -2 -3 -4 -2 -1 -0 -1 -0 -0 -1 -1 -1 -1 -1 -1 -1 -0 -0 -1 -2 -3 -2
0 -0 -1 -0 1 1 1 1 1 -0 1 2 2 -2 -2 -2 -1 -1 -2 -3 -2 -2 -2 -4 -3 -3 -1 -3 -2 -1 -1 -1 -1 -1 -2 -3 -4 -4
-0 -1 -1 -1 1 2 2 -0 -1 1 1 1 0 -2 -2 -1 -0 -1 -2 -4 -3 -5 -5 -5 -6 -5 -3 -3 -3 -2 -2 -2 -2 -2 -3 -3 -5 -5
-2 -2 -2 1 2 1 -0 -1 -0 -0 -0 0 1 0 1 0 -1 -2 -3 -3 -3 -3 -5 -5 -6 -6 -3 -3 -3 -3 -3 -3 -3 -3 -4 -4 -5 -8
-1 -1 -1 0 1 -1 -2 -1 -2 -1 -1 1 2 1 2 0 1 -2 -2 -2 -3 -3 -4 -5 -6 -6 -4 -3 -4 -4 -4 -4 -4 -4 -5 -5 -7 -10
-1 -2 0 -0 -2 -3 -2 -2 -2 -2 -2 -1 0 1 1 1 -0 -1 -2 -3 -3 -3 -4 -6 -7 -7 -5 -5 -4 -5 -5 -5 -4 -5 -6 -7 -8 -11
-3 -1 -1 -1 -0 -1 -1 -2 -2 -2 -2 -2 -1 -0 0 -1 -2 -3 -3 -3 -3 -3 -4 -4 -5 -5 -6 -6 -5 -5 -5 -5 -5 -5 -6 -7 -8 -9
-1 -2 -1 -0 -1 -2 -1 -1 -1 -1 -1 -1 -1 -1 -1 -1 -1 -2 -3 -3 -4 -4 -4 -4 -4 -5 -5 -6 -6 -7 -7 -6 -6 -7 -8 -8 -9 -10
-4 -4 -2 -1 -1 -1 -1 -1 -1 -0 -1 -1 -1 -1 -1 -2 -2 -2 -2 -3 -4 -4 -3 -4 -4 -5 -7 -7 -7 -8 -7 -7 -8 -8 -9 -11 -12 -11
-2 -2 -2 -2 -2 -2 -2 -2 -2 -1 -1 -1 -2 -2 -2 -2 -2 -2 -3 -4 -4 -4 -4 -4 -5 -5 -7 -9 -9 -9 -8 -8 -9 -9 -10 -12 -12 -13
-2 -2 -2 -3 -3 -3 -3 -3 -2 -2 -2 -2 -3 -3 -3 -3 -3 -3 -3 -4 -4 -4 -5 -5 -5 -6 -7 -8 -9 -9 -10 -10 -11 -10 -11 -11 -12 -12
-3 -4 -4 -4 -4 -4 -4 -4 -4 -3 -3 -3 -3 -4 -3 -3 -4 -4 -5 -5 -5 -5 -6 -6 -6 -7 -7 -8 -8 -10 -11 -11 -12 -12 -11 -12 -13 -13
-4 -4 -5 -6 -5 -5 -5 -4 -4 -4 -4 -5 -6 -5 -5 -5 -5 -6 -6 -7 -7 -7 -7 -8 -8 -8 -8 -8 -9 -10 -11 -11 -12 -12 -11 -12 -13 -13
-6 -6 -6 -6 -5 -5 -5 -5 -5 -5 -5 -6 -6 -7 -7 -7 -7 -8 -9 -9 -9 -9 -9 -9 -9 -9 -9 -10 -10 -10 -11 -11 -12 -12 -12 -13 -13 -13
-6 -7 -6 -6 -7 -6 -6 -6 -6 -6 -6 -7 -7 -8 -8 -8 -9 -9 -9 -9 -9 -9 -9 -10 -10 -10 -11 -11 -10 -10 -11 -11 -11 -12 -13 -13 -13 -13
-7 -7 -8 -8 -8 -7 -7 -7 -8 -7 -7 -8 -9 -9 -9 -9 -9 -9 -10 -10 -10 -10 -9 -9 -10 -10 -11 -11 -11 -11 -11 -12 -12 -12 -13 -13 -13 -13
-8 -8 -8 -8 -8 -8 -8 -9 -8 -9 -9 -9 -9 -9 -10 -10 -10 -10 -10 -10 -10 -10 -10 -10 -10 -10 -11 -11 -11 -12 -12 -12 -13 -13 -13 -13 -13 -13
-8 -8 -9 -9 -9 -9 -9 -9 -8 -9 -9 -10 -10 -10 -10 -10 -11 -11 -11 -11 -11 -11 -10 -10 -10 -10 -11 -11 -12 -13 -13 -13 -13 -14 -14 -15 -15 -15
-9 -9 -9 -9 -9 -9 -9 -9 -9 -10 -10 -10 -11 -11 -11 -11 -11 -11 -11 -11 -11 -11 -11 -11 -11 -12 -12 -13 -13 -13 -14 -14 -14 -15 -15 -15 -15 -16

GFSNE_850_temp_195.txt.gz
Temp
5 6 7 7 7 7 7 6 6 0 -0 -1 -1 -1 2 5 -0 0 2 2 3 4 4 3 3 3 3 3 3 3 3 2 2 1 1 1 2 3
5 5 6 6 6 6 7 7 4 6 -0 0 -0 0 2 0 -0 -1 1 1 2 3 3 3 3 2 2 2 2 2 2 1 1 0 0 1 1 2
4 5 5 5 6 6 6 5 5 4 3 2 -0 0 2 -1 -1 -2 -1 -0 2 2 2 2 2 2 2 1 2 1 0 0 -0 -0 0 -0 0 1
4 4 4 5 5 5 4 3 3 3 4 3 0 -0 -0 2 -2 -1 -2 -1 -0 0 1 1 1 1 1 1 1 1 0 -1 -1 -1 -1 -1 -0 -0
4 4 4 4 4 2 2 3 2 1 2 2 0 0 -0 -2 -3 -3 -3 -2 -2 -1 -0 0 0 -0 -0 -0 -0 -1 -1 -1 -2 -1 -1 -1 -1 -1
3 3 3 3 3 2 2 2 1 1 2 3 2 -0 -2 -3 -4 -3 -4 -4 -3 -2 -2 -2 -2 -0 -1 -1 -1 -1 -2 -2 -2 -2 -2 -2 -2 -2
2 2 2 1 0 1 1 1 0 1 2 1 1 -1 -3 -3 -3 -4 -3 -4 -4 -3 -3 -3 -3 -2 -2 -2 -3 -3 -3 -3 -3 -3 -3 -3 -3 -3
1 -0 -0 -0 0 0 -0 -0 -0 2 2 1 1 -0 -1 -2 -3 -4 -3 -4 -4 -3 -4 -4 -4 -3 -3 -4 -3 -4 -4 -4 -3 -3 -4 -3 -4 -3
-0 -0 -1 -1 -1 -1 -1 -1 -0 1 2 2 1 1 0 0 -1 -3 -3 -2 -2 -2 -4 -5 -5 -5 -5 -4 -4 -5 -4 -4 -4 -4 -5 -5 -5 -5
-0 -0 -0 -1 -1 -2 -2 -1 0 0 -0 -0 0 1 1 0 -1 -1 -1 -3 -3 -3 -4 -5 -5 -5 -5 -5 -5 -5 -4 -5 -4 -5 -6 -6 -6 -6
-1 -1 -1 -1 -2 -2 -2 -1 -1 -1 -1 -1 -1 -1 -0 -1 -2 -2 -3 -3 -4 -4 -4 -4 -4 -4 -5 -5 -5 -6 -6 -5 -5 -5 -6 -7 -7 -6
-2 -2 -2 -3 -2 -2 -2 -2 -2 -2 -1 -1 -2 -2 -2 -2 -3 -3 -1 -2 -3 -4 -4 -4 -4 -4 -6 -5 -5 -5 -6 -6 -7 -7 -9 -8 -8 -7
-3 -3 -3 -3 -2 -2 -2 -2 -2 -1 -2 -2 -2 -2 -2 -2 -3 -3 -2 -2 -2 -3 -2 -3 -3 -4 -5 -5 -5 -6 -7 -7 -8 -8 -10 -10 -8 -7
-3 -3 -4 -4 -4 -3 -2 -3 -3 -3 -2 -2 -2 -2 -2 -3 -3 -3 -3 -3 -3 -3 -4 -4 -3 -4 -5 -5 -6 -7 -8 -8 -8 -9 -10 -11 -11 -9
-3 -3 -3 -4 -2 -2 -4 -4 -3 -3 -3 -3 -2 -2 -2 -3 -3 -3 -4 -4 -4 -4 -4 -4 -4 -5 -6 -7 -6 -7 -8 -8 -9 -10 -11 -11 -11 -12
-4 -3 -3 -2 -3 -4 -4 -4 -3 -3 -3 -2 -3 -2 -3 -3 -3 -3 -4 -4 -4 -5 -5 -5 -5 -6 -6 -7 -7 -8 -10 -9 -9 -10 -11 -11 -11 -12
-3 -3 -4 -4 -4 -4 -4 -4 -4 -4 -4 -4 -4 -3 -4 -4 -4 -4 -5 -5 -5 -5 -6 -6 -7 -7 -8 -8 -8 -9 -10 -11 -11 -11 -11 -11 -12 -13
-3 -2 -3 -4 -4 -4 -4 -5 -5 -5 -5 -5 -4 -4 -4 -5 -5 -5 -6 -6 -6 -6 -7 -7 -8 -8 -9 -9 -9 -10 -11 -11 -11 -12 -12 -12 -13 -13
-5 -5 -5 -6 -6 -5 -5 -5 -5 -5 -6 -6 -6 -6 -6 -6 -7 -7 -7 -7 -8 -8 -8 -9 -9 -9 -9 -9 -10 -10 -11 -11 -11 -12 -12 -12 -12 -13
-6 -6 -6 -7 -6 -6 -6 -6 -7 -7 -7 -8 -8 -8 -8 -8 -8 -8 -8 -8 -9 -9 -9 -9 -9 -9 -9 -10 -10 -11 -11 -11 -12 -12 -12 -13 -13 -13
-7 -7 -8 -8 -7 -7 -7 -7 -7 -8 -8 -8 -9 -9 -9 -8 -9 -9 -9 -9 -9 -10 -10 -10 -10 -10 -10 -10 -11 -11 -11 -11 -12 -13 -13 -13 -13 -13
-8 -8 -8 -8 -8 -8 -8 -8 -8 -9 -9 -9 -9 -9 -9 -9 -9 -9 -9 -10 -10 -10 -10 -10 -10 -10 -10 -10 -11 -11 -12 -12 -13 -13 -14 -14 -14 -14
-8 -8 -8 -9 -9 -9 -9 -9 -9 -9 -9 -9 -9 -10 -10 -10 -10 -10 -10 -10 -11 -11 -11 -11 -11 -11 -11 -11 -11 -12 -13 -13 -14 -14 -14 -15 -15 -16

GFSNE_850_temp_198.txt.gz
Temp
6 6 5 4 4 5 6 7 8 1 0 -1 0 -0 1 2 -0 -0 -0 2 4 4 4 3 3 3 2 3 3 3 3 3 3 3 3 2 1 -1
6 6 5 4 4 4 5 6 7 7 1 -0 0 1 0 0 -1 -0 -1 2 2 2 2 2 2 2 2 2 2 2 2 2 2 2 2 1 -0 -1
5 6 5 4 3 3 4 5 5 5 3 -1 1 1 1 1 -1 -2 -1 1 0 2 1 1 1 1 1 1 1 1 1 1 1 1 1 0 -0 -1
6 5 5 4 3 3 3 3 4 3 4 0 -0 1 1 -0 -1 -1 -1 -1 1 0 -1 0 0 0 1 1 1 1 0 1 1 1 -0 -1 -1 -1
5 5 4 4 3 2 3 3 3 3 3 4 2 0 -0 -1 -2 -2 -1 -0 -1 -2 -2 -1 -1 -1 -0 0 0 -0 -0 -0 -0 -1 -1 -1 -2 -2
5 5 4 4 2 2 1 2 3 2 3 3 1 0 -0 -2 -2 -2 -4 -1 -2 -3 -3 -2 -2 -2 -1 -0 -1 -1 -1 -1 -1 -1 -1 -2 -2 -2
4 4 4 3 3 2 1 1 2 2 1 1 0 -1 -2 -2 -2 -3 -0 -2 -4 -3 -3 -3 -2 -3 -2 -2 -2 -2 -2 -2 -2 -2 -3 -3 -3 -3
3 3 3 1 2 2 1 2 1 1 1 1 0 -0 -1 -2 -2 -1 -1 -4 -5 -5 -4 -4 -4 -4 -4 -3 -3 -3 -3 -2 -2 -3 -3 -4 -4 -4
2 1 0 1 1 1 1 1 1 1 2 3 0 1 -0 -0 -1 -1 -2 -3 -3 -3 -4 -5 -4 -4 -4 -4 -4 -4 -3 -3 -3 -3 -3 -4 -5 -5
-0 -0 0 0 -0 -0 0 0 0 0 0 -0 1 1 1 1 1 -0 -2 -4 -4 -4 -4 -5 -4 -5 -5 -5 -5 -4 -4 -3 -3 -4 -4 -4 -5 -6
-1 -0 -0 -0 -0 -0 1 -0 -0 -1 -1 -0 0 1 1 1 1 -1 -2 -4 -5 -4 -5 -5 -5 -5 -6 -6 -5 -5 -5 -4 -4 -5 -5 -6 -6 -7
-2 -1 -1 -0 -0 -0 -0 -1 -1 -1 -1 -1 -1 -0 -0 -1 -1 -1 -1 -2 -4 -5 -5 -5 -5 -5 -6 -5 -5 -6 -6 -5 -5 -5 -7 -6 -7 -8
-2 -2 -2 -2 -2 -2 -1 -1 -1 -1 -1 -0 -0 -1 -2 -3 -3 -3 -2 -1 -2 -3 -2 -4 -4 -4 -5 -4 -4 -6 -6 -6 -6 -7 -7 -7 -7 -9
-3 -3 -3 -3 -2 -2 -2 -1 -1 -1 -1 -1 -2 -2 -3 -3 -3 -3 -3 -3 -4 -3 -3 -3 -3 -3 -4 -4 -5 -6 -6 -6 -8 -8 -8 -7 -8 -9
-3 -3 -3 -3 -3 -3 -3 -3 -3 -2 -2 -2 -2 -2 -3 -3 -3 -4 -4 -4 -5 -5 -4 -4 -4 -4 -4 -5 -5 -5 -6 -7 -8 -9 -9 -9 -9 -10
-4 -4 -4 -4 -4 -4 -4 -4 -3 -3 -3 -3 -3 -3 -3 -4 -4 -4 -4 -4 -5 -5 -5 -5 -5 -5 -6 -6 -6 -6 -7 -7 -8 -9 -10 -10 -11 -11
-4 -4 -4 -4 -5 -4 -5 -5 -5 -4 -4 -4 -3 -3 -4 -4 -5 -5 -5 -5 -5 -5 -5 -5 -6 -6 -7 -7 -7 -7 -8 -8 -9 -10 -11 -11 -11 -11
-4 -3 -4 -4 -4 -5 -5 -4 -4 -4 -4 -4 -4 -4 -4 -4 -5 -5 -5 -5 -5 -5 -6 -6 -6 -7 -8 -8 -9 -9 -9 -9 -10 -11 -11 -11 -11 -11
-4 -5 -4 -4 -5 -5 -5 -4 -4 -4 -4 -4 -4 -5 -5 -5 -5 -5 -6 -6 -6 -7 -7 -7 -8 -8 -8 -8 -9 -9 -10 -11 -11 -11 -11 -12 -12 -12
-6 -6 -7 -7 -7 -6 -6 -5 -5 -5 -5 -5 -6 -6 -6 -6 -6 -7 -7 -7 -7 -8 -8 -9 -9 -9 -9 -9 -9 -10 -10 -11 -11 -12 -12 -12 -13 -13
-6 -6 -6 -6 -7 -6 -6 -6 -6 -7 -7 -7 -7 -7 -8 -8 -7 -7 -8 -8 -8 -9 -9 -10 -9 -9 -10 -10 -10 -10 -10 -11 -11 -12 -12 -13 -13 -13
-7 -7 -7 -7 -7 -7 -7 -7 -7 -7 -8 -8 -8 -8 -8 -8 -8 -9 -9 -9 -9 -9 -10 -10 -10 -10 -10 -10 -11 -11 -11 -11 -12 -12 -13 -13 -14 -14
-7 -8 -8 -8 -8 -8 -8 -8 -8 -8 -8 -9 -9 -9 -9 -9 -9 -9 -9 -10 -10 -10 -10 -10 -11 -11 -11 -11 -11 -12 -12 -12 -13 -13 -14 -14 -15 -15